Wetbulb
43.75 40.30 38.06 41.37 43.05 43.66 43.48 40.96 40.96 43.18 45.27 44.54 44.33 45.22 47.48 50.05 52.05 50.84 51.57 52.02 53.29 54.19 56.09 57.22 56.77 58.48 60.45 64.34 67.31 70.30 70.81 71.96 71.98 71.52 71.53 72.03 71.72 72.55 72.80 73.38 73.85 73.59 73.85 73.74
40.44 37.82 42.65 43.92 44.32 42.76 42.67 41.05 41.75 43.89 45.40 44.39 44.44 44.40 47.78 49.62 49.30 50.29 50.77 51.73 53.85 54.07 54.86 56.02 56.76 58.63 61.18 65.54 67.25 70.21 71.06 71.76 71.98 71.79 70.28 71.36 72.08 72.23 73.55 74.21 75.02 75.08 74.05 72.88
40.32 42.28 44.41 43.46 43.42 41.33 42.12 41.10 41.88 41.70 44.41 46.03 44.62 42.56 44.94 47.56 48.93 49.01 49.36 51.18 51.98 52.62 53.80 54.23 55.77 58.40 61.29 64.39 66.32 68.23 69.69 70.23 69.40 68.47 65.68 65.73 66.00 66.51 67.33 67.21 67.58 68.59 69.72 69.91
43.32 46.39 44.17 43.71 42.97 43.92 40.02 44.73 43.84 42.88 41.83 39.00 44.07 38.12 44.16 46.68 45.91 47.96 49.53 49.27 49.65 51.34 53.22 54.78 56.65 57.47 59.94 62.80 63.86 64.75 65.40 66.11 66.31 66.51 66.42 68.38 65.07 63.15 63.55 64.42 64.75 65.76 66.31 66.27
41.53 43.00 42.87 42.20 43.40 45.45 42.87 46.03 44.44 44.15 42.62 41.31 41.23 39.99 43.51 44.88 44.60 47.07 48.90 50.99 51.89 52.26 52.52 53.57 54.21 58.16 59.02 60.24 60.42 62.33 62.89 63.71 64.41 65.05 66.30 63.98 64.52 63.44 63.51 63.27 65.05 66.10 66.09 66.52
44.01 46.88 46.46 45.53 46.09 46.11 46.33 43.41 42.47 42.12 42.09 36.53 41.34 40.43 40.98 42.74 44.69 47.78 50.02 50.32 50.00 51.79 51.89 53.22 54.72 56.82 57.02 58.91 60.45 61.36 62.37 63.62 64.17 64.13 64.08 65.24 65.95 64.37 62.27 63.12 62.65 62.92 63.52 64.87
41.83 43.16 46.54 46.88 44.19 46.39 44.17 41.95 36.13 34.48 34.66 34.99 39.73 39.12 42.15 44.38 47.51 48.13 48.97 49.59 49.97 50.43 51.84 52.67 54.27 55.94 57.61 58.91 60.04 61.15 61.43 58.89 60.17 60.65 61.35 61.78 61.79 62.14 62.67 63.86 62.42 63.48 62.44 63.32
37.59 34.80 43.12 47.77 46.19 44.04 43.95 42.45 37.64 30.54 32.33 35.53 39.64 37.20 42.21 47.48 47.88 48.38 49.97 50.76 50.48 49.66 50.09 50.35 51.61 52.16 53.10 53.72 54.52 55.79 56.22 56.86 57.71 58.14 58.39 59.15 60.01 59.87 60.30 61.14 60.80 60.56 60.97 62.62
37.96 37.90 46.30 47.45 48.55 47.72 43.12 41.26 42.53 38.08 36.83 37.14 38.95 41.15 46.38 47.63 47.50 48.70 48.61 48.83 48.75 49.59 50.47 50.86 51.61 51.92 52.96 53.52 54.07 54.94 55.19 55.07 55.29 55.34 56.50 56.82 57.65 58.62 59.03 60.33 61.29 60.78 61.99 61.77
43.17 37.98 44.50 46.61 48.36 47.46 46.23 45.63 39.59 40.94 32.56 30.91 36.03 38.02 40.91 44.48 45.78 46.94 46.94 47.55 48.40 49.23 49.46 49.92 50.28 50.46 51.37 52.00 52.73 53.44 53.55 53.09 53.70 54.27 54.51 54.36 54.73 55.07 55.63 55.95 56.32 57.48 59.28 60.93
44.22 42.33 40.70 44.15 42.00 42.33 42.73 42.33 41.77 41.91 39.35 34.44 32.84 37.20 45.23 46.06 46.91 46.20 46.71 47.39 47.73 48.26 48.64 49.08 49.52 50.02 50.38 50.81 50.93 51.70 51.83 51.81 52.32 52.89 53.25 53.33 53.44 53.66 54.00 54.00 54.43 55.01 55.68 56.14
43.78 41.81 38.37 39.16 43.46 44.81 43.75 41.88 43.44 39.91 36.14 38.22 38.62 38.14 45.84 46.78 46.99 47.79 47.25 47.14 47.79 48.13 48.35 48.76 49.06 49.30 49.22 49.47 49.80 50.21 50.71 50.72 51.07 51.73 51.76 51.67 52.14 52.36 52.41 52.66 53.06 53.65 53.57 54.29
46.46 39.45 33.78 36.30 41.32 43.73 41.47 42.58 42.63 41.95 41.63 38.20 36.00 38.40 45.25 45.97 46.23 47.12 47.11 47.29 47.26 47.58 47.87 48.16 48.45 48.00 48.03 48.33 48.50 48.74 49.44 49.63 50.31 50.41 50.15 50.30 50.36 50.41 50.57 50.95 51.43 51.63 51.77 52.03
48.45 40.43 36.90 36.04 37.02 40.66 39.05 41.26 42.61 41.42 37.85 37.18 38.51 40.29 42.36 44.31 45.15 45.85 46.40 47.04 46.84 46.99 46.95 47.48 47.64 47.85 48.03 48.06 47.89 47.90 48.41 49.07 49.29 48.78 48.56 48.33 48.66 48.59 48.53 48.96 49.26 49.76 50.41 50.33
44.44 38.74 39.66 39.32 39.84 39.86 39.64 40.02 40.31 39.50 39.49 36.60 38.76 40.31 44.05 46.00 46.21 45.80 46.29 46.63 46.32 46.03 46.22 46.59 46.36 46.71 47.03 46.91 47.09 47.55 47.53 47.67 47.70 46.91 46.75 46.81 47.40 47.67 47.71 47.81 48.27 48.47 48.14 48.43
42.15 37.50 38.72 35.22 37.36 37.65 36.36 38.86 39.55 39.61 39.70 39.77 40.18 39.72 46.18 45.56 45.70 44.37 45.03 45.13 44.90 44.54 44.94 45.25 45.51 45.56 45.46 45.64 45.61 45.53 45.66 45.79 46.24 45.47 45.27 46.23 46.27 46.63 46.71 46.82 46.88 47.17 47.19 47.47
40.16 38.51 36.27 31.84 35.03 35.07 32.01 36.53 38.01 38.41 39.94 40.12 36.38 41.26 44.37 43.03 43.33 44.16 44.83 44.54 44.08 43.46 43.89 44.28 44.39 44.51 44.86 44.71 44.29 43.67 44.38 45.00 44.37 44.35 44.92 45.24 45.18 45.06 45.42 45.35 45.58 45.20 45.08 46.01
39.03 37.24 35.79 31.52 33.26 25.68 36.03 43.42 42.42 40.19 40.64 41.96 41.27 41.95 42.52 42.52 43.69 44.83 45.09 44.09 43.03 43.23 43.67 43.89 43.87 43.93 44.41 43.99 43.49 44.21 43.51 43.12 43.32 43.36 43.30 43.07 42.90 42.35 42.47 43.21 43.11 43.52 43.58 43.52
41.04 38.08 32.44 30.67 29.73 32.12 36.89 41.07 40.69 39.75 38.97 42.05 41.72 41.89 42.35 43.39 44.33 43.24 44.02 43.89 43.48 43.21 43.21 42.98 43.30 43.32 42.37 41.99 42.33 41.69 41.62 41.97 41.99 41.18 41.15 40.98 41.02 40.76 41.39 41.84 41.50 42.21 42.11 41.90
39.31 39.47 35.76 31.52 27.87 26.31 37.58 41.96 44.71 43.84 36.46 42.20 42.49 41.25 40.98 42.39 39.25 42.35 43.27 43.20 42.66 42.39 42.11 40.97 41.17 40.85 40.58 39.93 40.15 39.43 39.82 40.50 40.15 39.01 38.57 40.03 40.42 40.47 40.17 40.78 41.02 41.67 41.68 40.99
34.58 35.97 32.33 31.09 30.31 33.49 39.84 42.92 44.04 34.12 36.08 42.50 42.07 41.65 41.02 39.42 40.71 42.26 42.71 41.45 41.80 41.00 40.13 40.16 39.59 38.68 38.59 39.10 39.00 38.38 38.76 37.45 37.85 39.27 39.68 39.96 40.59 40.54 41.39 41.42 41.86 42.60 42.20 41.72
32.78 31.39 30.98 32.92 30.49 27.80 43.70 43.17 38.02 41.53 42.98 42.56 41.41 40.50 40.06 40.52 40.28 39.91 39.78 39.33 39.08 37.90 37.66 37.97 37.77 37.20 37.96 39.55 38.17 35.49 35.00 38.24 38.82 39.09 39.14 39.63 40.75 42.00 42.36 42.22 42.83 42.82 41.82 41.40
34.84 39.23 36.15 36.49 36.53 44.45 45.22 43.52 44.43 44.53 42.30 40.40 40.23 39.48 38.66 38.29 37.57 37.69 37.44 36.96 35.83 35.52 35.54 36.66 35.37 35.58 37.90 36.15 36.00 34.59 36.87 37.88 38.57 39.08 39.81 41.20 43.15 43.60 43.31 43.27 42.72 43.25 43.30 42.30
41.30 42.80 39.47 39.26 41.93 43.32 41.52 40.46 42.53 42.59 40.71 40.02 39.23 38.44 38.35 36.86 36.98 35.72 35.19 34.55 33.92 34.48 34.39 35.33 35.05 33.94 33.30 35.00 35.45 36.48 36.78 37.59 37.86 38.24 40.43 42.42 41.96 42.31 44.25 44.33 44.04 43.94 44.31 43.10
40.86 42.03 40.00 39.36 42.59 40.78 41.43 41.12 39.53 38.83 39.85 38.91 38.76 38.46 37.66 36.97 35.41 34.53 33.86 33.77 34.03 34.65 34.99 34.76 34.13 33.40 33.15 34.61 35.32 36.36 36.35 36.69 36.63 37.36 39.64 40.51 42.03 42.71 43.82 44.63 43.85 44.26 45.33 45.10
41.96 40.62 39.31 38.98 44.20 43.13 39.88 38.82 39.97 39.03 38.35 38.35 37.49 37.34 38.05 36.33 34.77 34.90 33.99 34.58 34.61 34.51 35.09 34.04 33.86 32.87 32.88 33.46 33.82 34.95 35.63 35.10 35.11 36.06 38.00 41.19 41.55 43.42 43.66 44.14 44.06 42.57 40.93 40.60
MSLP
1008.58 1008.39 1007.28 1007.24 1006.85 1006.83 1006.49 1006.29 1005.36 1004.72 1004.66 1005.25 1005.05 1005.17 1005.38 1006.00 1006.89 1007.00 1006.93 1007.24 1005.89 1005.08 1004.57 1005.47 1005.57 1005.82 1006.11 1006.28 1006.65 1006.74 1006.97 1007.40 1007.89 1008.23 1008.62 1009.00 1009.06 1009.71 1010.12 1010.25 1010.34 1010.66 1011.04 1011.25
1007.89 1006.85 1006.71 1006.93 1007.00 1006.82 1006.47 1005.97 1004.98 1004.64 1004.36 1004.84 1004.54 1004.55 1004.49 1004.89 1005.39 1006.10 1005.96 1006.34 1004.96 1003.88 1003.73 1004.53 1005.35 1005.48 1005.55 1005.47 1005.90 1006.17 1006.55 1006.91 1007.41 1007.88 1008.53 1008.76 1008.96 1009.33 1009.50 1009.82 1009.96 1010.12 1010.45 1010.75
1005.87 1005.49 1005.93 1006.34 1006.44 1006.55 1005.96 1005.60 1004.83 1004.49 1004.48 1004.32 1003.87 1004.14 1004.15 1004.32 1004.63 1005.18 1005.24 1005.19 1004.95 1004.75 1004.88 1005.19 1005.06 1005.09 1005.23 1005.41 1005.63 1006.05 1006.60 1007.16 1007.61 1007.90 1008.40 1009.07 1009.41 1009.73 1009.99 1010.09 1010.09 1010.30 1010.46 1010.65
1005.34 1004.92 1005.04 1005.40 1005.34 1005.61 1005.07 1004.94 1004.49 1004.52 1004.44 1003.68 1004.00 1003.08 1003.40 1003.46 1003.92 1004.23 1004.64 1004.87 1004.89 1004.99 1005.18 1005.01 1004.88 1005.12 1004.99 1005.11 1006.00 1006.59 1007.11 1007.80 1008.21 1008.51 1008.40 1008.74 1008.88 1009.24 1009.49 1009.56 1009.94 1010.20 1010.27 1010.31
1004.23 1004.20 1004.38 1004.42 1004.24 1004.59 1004.13 1004.44 1004.37 1004.27 1004.30 1004.19 1003.81 1003.33 1003.02 1003.34 1003.54 1003.66 1004.33 1004.69 1004.61 1004.82 1004.98 1005.35 1005.14 1005.26 1005.42 1005.97 1006.48 1006.88 1007.60 1008.14 1008.65 1008.73 1008.74 1008.87 1009.03 1009.05 1009.16 1009.59 1009.80 1010.01 1010.16 1010.18
1003.73 1003.93 1003.67 1003.45 1003.62 1003.84 1004.04 1004.36 1004.57 1004.58 1004.29 1003.81 1003.51 1003.56 1003.13 1003.40 1003.66 1003.93 1004.59 1004.98 1004.81 1005.21 1005.51 1005.48 1005.58 1005.88 1006.37 1006.74 1006.90 1007.41 1007.97 1008.21 1008.71 1008.92 1008.95 1008.96 1009.02 1009.13 1009.29 1009.43 1009.55 1009.55 1009.81 1009.97
1003.53 1003.37 1003.29 1003.34 1003.35 1003.86 1004.04 1004.04 1003.94 1004.29 1004.10 1003.52 1004.12 1004.07 1003.51 1004.03 1004.55 1004.93 1004.91 1005.26 1005.60 1006.00 1006.00 1006.12 1006.09 1006.18 1006.60 1006.79 1007.23 1007.72 1008.45 1009.12 1009.42 1009.57 1009.70 1009.84 1009.87 1009.96 1009.92 1009.82 1009.65 1009.49 1009.39 1009.40
1003.00 1003.28 1003.09 1003.00 1002.83 1002.79 1003.46 1003.52 1003.08 1003.30 1003.62 1003.98 1004.70 1003.88 1004.01 1004.65 1005.23 1005.67 1006.01 1006.06 1006.34 1006.74 1007.21 1007.34 1007.80 1007.88 1008.05 1008.30 1008.58 1008.83 1008.97 1009.24 1009.68 1009.89 1010.05 1010.17 1010.17 1009.95 1009.88 1010.00 1010.07 1009.81 1009.57 1009.29
1002.46 1002.78 1002.93 1002.93 1002.83 1002.92 1003.41 1003.73 1004.35 1004.20 1004.90 1004.32 1004.40 1004.93 1004.93 1005.37 1005.69 1006.29 1006.45 1006.91 1007.53 1008.06 1008.55 1008.71 1009.12 1009.22 1009.48 1009.44 1009.54 1009.68 1009.78 1010.15 1010.61 1010.80 1010.78 1010.72 1010.54 1010.39 1010.33 1010.33 1010.14 1009.78 1009.49 1009.37
1002.45 1002.85 1003.26 1003.33 1003.15 1003.49 1003.17 1003.98 1004.48 1004.42 1004.59 1004.54 1004.84 1004.92 1004.57 1005.72 1006.27 1006.80 1007.14 1007.88 1008.62 1008.95 1009.32 1009.68 1009.88 1010.14 1010.26 1010.38 1010.48 1010.58 1010.72 1010.87 1010.90 1010.90 1010.90 1010.83 1010.95 1010.86 1010.76 1010.50 1010.25 1009.82 1009.66 1009.48
1002.86 1003.37 1004.11 1004.05 1004.21 1003.92 1004.28 1004.05 1004.67 1004.95 1005.31 1004.79 1004.82 1005.07 1005.95 1006.09 1006.58 1007.16 1008.16 1009.00 1009.45 1009.74 1010.11 1010.44 1010.54 1010.72 1010.63 1010.72 1010.69 1010.90 1011.17 1011.35 1011.29 1011.21 1011.19 1011.10 1010.88 1010.67 1010.54 1010.28 1009.84 1009.77 1009.67 1009.37
1003.97 1004.21 1004.60 1005.09 1005.39 1005.35 1004.96 1004.76 1004.68 1004.99 1005.80 1005.85 1005.56 1005.81 1006.64 1006.93 1007.38 1007.93 1008.82 1009.59 1010.16 1010.59 1010.94 1011.04 1011.11 1011.23 1011.28 1011.46 1011.70 1011.71 1011.63 1011.41 1011.31 1011.13 1010.77 1010.50 1010.47 1010.25 1010.02 1009.95 1009.80 1009.55 1009.17 1008.81
1004.02 1005.77 1006.26 1006.09 1006.18 1005.84 1005.61 1005.75 1005.77 1005.89 1005.95 1005.60 1005.56 1006.06 1007.23 1007.75 1008.08 1008.67 1009.09 1009.62 1010.24 1010.59 1010.94 1011.16 1011.26 1011.45 1011.57 1011.50 1011.45 1011.18 1011.11 1010.97 1010.82 1010.71 1010.59 1010.38 1010.25 1010.09 1009.92 1009.64 1009.30 1009.04 1008.68 1008.30
1004.18 1005.97 1006.49 1005.66 1005.74 1005.98 1006.10 1006.27 1006.45 1006.47 1006.50 1006.19 1005.92 1006.43 1007.48 1007.95 1008.26 1008.75 1009.21 1009.79 1010.14 1010.45 1010.79 1010.91 1010.93 1010.91 1011.03 1011.13 1011.14 1011.21 1011.23 1011.34 1011.17 1010.95 1010.64 1010.26 1009.97 1009.74 1009.47 1009.17 1008.83 1008.45 1008.10 1007.69
1005.16 1006.00 1006.52 1006.70 1006.90 1006.74 1006.71 1006.73 1006.95 1006.90 1006.98 1006.78 1006.65 1006.80 1006.99 1007.70 1008.26 1008.88 1009.38 1009.84 1010.29 1010.74 1011.10 1011.49 1011.67 1011.68 1011.82 1011.85 1011.80 1011.76 1011.63 1011.33 1011.08 1010.67 1010.30 1009.93 1009.69 1009.46 1009.10 1008.73 1008.36 1008.04 1007.74 1007.28
1006.21 1006.89 1007.07 1007.65 1007.76 1007.62 1007.46 1007.39 1007.36 1007.38 1007.37 1007.29 1007.31 1007.17 1007.41 1008.48 1008.98 1009.52 1009.92 1010.37 1010.77 1011.36 1011.77 1012.01 1012.09 1012.19 1012.24 1012.24 1012.14 1011.97 1011.60 1011.23 1010.91 1010.46 1010.01 1009.67 1009.39 1009.05 1008.68 1008.29 1007.90 1007.49 1007.06 1006.70
1006.80 1007.24 1007.72 1008.25 1008.66 1008.31 1007.86 1007.22 1007.32 1007.60 1007.80 1007.80 1007.76 1007.79 1008.39 1009.07 1009.52 1010.06 1010.46 1010.98 1011.52 1012.14 1012.40 1012.50 1012.54 1012.49 1012.47 1012.47 1012.42 1011.81 1011.44 1011.06 1010.65 1010.20 1009.76 1009.40 1009.07 1008.63 1008.23 1007.86 1007.43 1007.05 1006.64 1006.28
1007.31 1007.82 1008.46 1008.93 1009.05 1008.40 1007.87 1007.42 1007.41 1007.71 1008.34 1008.55 1008.81 1009.17 1009.55 1009.93 1010.30 1010.59 1010.99 1011.64 1012.29 1012.62 1012.66 1012.63 1012.64 1012.62 1012.60 1012.56 1012.17 1011.67 1011.35 1010.96 1010.46 1010.02 1009.60 1009.26 1008.84 1008.43 1008.06 1007.57 1007.12 1006.73 1006.27 1005.84
1007.83 1008.31 1009.04 1009.15 1009.00 1008.85 1008.39 1008.03 1007.95 1007.93 1008.90 1009.35 1009.46 1009.89 1010.19 1010.40 1010.44 1011.19 1011.90 1012.50 1012.83 1012.96 1012.96 1012.92 1012.88 1012.69 1012.66 1012.46 1012.20 1011.87 1011.34 1010.84 1010.32 1009.79 1009.40 1009.11 1008.70 1008.17 1007.61 1007.03 1006.66 1006.24 1005.73 1005.27
1008.65 1008.76 1009.02 1009.65 1009.21 1008.65 1008.46 1008.68 1008.75 1008.56 1008.98 1010.14 1010.41 1010.74 1011.05 1011.15 1010.74 1011.19 1012.41 1012.86 1012.96 1013.21 1013.28 1013.19 1013.09 1013.02 1012.74 1012.53 1012.29 1011.74 1011.01 1010.49 1010.00 1009.80 1009.41 1008.88 1008.32 1007.71 1007.11 1006.52 1005.92 1005.38 1004.95 1004.37
1008.84 1009.10 1009.29 1009.67 1009.40 1009.14 1009.25 1009.36 1009.30 1009.52 1010.81 1011.09 1011.47 1011.83 1012.07 1012.23 1012.71 1012.97 1013.18 1013.35 1013.63 1013.68 1013.64 1013.60 1013.36 1012.99 1012.80 1012.52 1011.98 1011.36 1010.90 1010.51 1010.19 1009.63 1008.99 1008.33 1007.71 1007.06 1006.34 1005.66 1005.08 1004.53 1004.09 1003.55
1008.39 1008.86 1009.46 1009.74 1009.57 1009.72 1009.81 1009.79 1009.87 1010.86 1011.55 1012.02 1012.56 1013.12 1013.24 1013.48 1013.59 1013.70 1013.70 1013.71 1013.76 1013.81 1013.70 1013.64 1013.24 1012.93 1012.67 1012.19 1011.84 1011.37 1010.82 1010.27 1009.78 1009.25 1008.58 1007.83 1007.08 1006.33 1005.60 1005.01 1004.30 1003.77 1003.34 1002.82
1008.26 1008.32 1008.75 1009.26 1009.54 1010.15 1010.41 1010.75 1011.35 1011.61 1012.17 1013.17 1013.65 1014.17 1014.47 1014.40 1014.48 1014.60 1014.45 1014.56 1014.55 1014.38 1014.08 1013.78 1013.48 1012.89 1012.39 1012.27 1011.86 1011.15 1010.54 1010.14 1009.57 1008.96 1008.10 1007.22 1006.33 1005.61 1004.93 1004.21 1003.51 1002.98 1002.41 1001.88
1008.36 1008.55 1008.69 1009.30 1010.09 1010.61 1011.44 1011.91 1012.31 1012.86 1013.41 1014.15 1014.61 1014.93 1015.06 1015.05 1015.15 1015.13 1015.10 1014.98 1014.79 1014.55 1014.21 1013.95 1013.49 1012.95 1012.35 1011.98 1011.57 1011.08 1010.47 1009.97 1009.38 1008.60 1007.65 1006.73 1006.04 1005.20 1004.28 1003.51 1002.90 1002.28 1001.52 1001.01
1008.64 1008.75 1008.82 1009.31 1010.15 1011.30 1011.97 1012.61 1013.39 1013.86 1014.29 1014.73 1015.16 1015.41 1015.57 1015.68 1015.56 1015.53 1015.35 1015.19 1014.95 1014.75 1014.44 1014.04 1013.55 1012.95 1012.33 1011.81 1011.30 1010.83 1010.33 1009.80 1009.18 1008.42 1007.49 1006.67 1005.77 1004.84 1003.92 1003.06 1002.34 1001.73 1000.89 1000.28
1008.81 1008.77 1008.85 1009.02 1009.71 1010.65 1012.37 1013.49 1013.87 1014.10 1014.73 1015.25 1015.47 1015.52 1015.74 1016.06 1015.92 1015.77 1015.65 1015.60 1015.31 1014.87 1014.50 1014.07 1013.50 1012.95 1012.37 1011.82 1011.28 1010.72 1010.24 1009.83 1009.16 1008.34 1007.48 1006.49 1005.59 1004.51 1003.63 1002.65 1001.53 1000.77 1000.32 999.74
Wind_Speed
7 11 14 15 15 13 13 9 15 17 21 18 22 21 20 14 15 13 14 18 22 22 19 9 11 11 9 7 10 13 14 12 11 10 9 9 10 8 7 7 10 9 8 9
7 15 14 14 14 13 13 16 11 4 13 16 20 24 22 16 15 17 14 23 23 20 23 15 9 9 12 11 12 11 11 11 10 7 4 2 6 5 5 6 8 8 8 8
9 5 16 11 11 13 15 14 11 6 5 9 9 19 17 16 17 15 20 24 23 23 21 12 9 12 12 13 13 9 7 8 8 9 7 5 5 4 3 3 4 5 8 8
8 9 10 12 15 14 17 14 15 9 5 7 5 8 11 11 14 10 8 12 13 13 12 9 9 11 13 12 5 5 5 6 5 6 6 8 6 7 5 6 4 6 6 6
9 12 11 10 16 17 16 12 14 14 9 4 6 6 6 4 7 7 2 3 4 5 3 5 6 9 8 4 4 7 8 7 7 7 8 8 7 5 4 4 5 6 6 7
10 3 6 5 6 14 5 5 5 3 6 10 10 8 7 5 2 1 2 7 9 9 7 7 7 6 6 7 8 9 8 8 7 6 5 6 6 6 6 6 7 7 7 7
5 9 5 4 6 6 6 8 6 8 8 6 4 8 1 2 4 4 5 9 11 12 13 13 12 8 8 10 9 7 5 8 6 5 5 6 5 5 7 7 6 7 7 8
10 9 9 9 10 7 7 7 7 12 8 8 3 6 4 4 5 6 8 11 14 15 14 16 15 13 13 12 11 10 10 10 9 8 7 6 5 5 5 7 7 8 8 9
10 10 3 6 4 6 7 5 3 7 1 4 5 3 0 5 8 9 12 12 13 13 14 15 16 15 14 15 16 14 12 11 9 8 7 7 6 6 5 7 7 8 9 9
5 4 2 4 4 7 5 9 5 3 6 8 6 5 7 11 8 8 10 11 12 12 14 13 13 13 12 11 10 11 10 9 7 7 6 5 5 6 7 7 7 7 8 9
5 3 3 2 1 5 6 5 5 4 2 6 7 5 0 6 6 10 11 10 10 10 11 10 10 10 10 10 11 10 9 8 7 7 7 8 9 10 10 9 10 10 10 11
2 3 5 2 4 4 1 2 3 4 6 1 1 4 3 7 8 10 11 9 9 9 8 7 7 7 8 9 7 6 6 7 8 9 10 11 12 12 12 12 13 13 14 14
8 3 2 3 3 3 2 2 3 5 2 9 8 4 6 6 7 7 9 7 6 5 6 6 7 7 8 8 8 9 10 12 12 12 13 13 13 13 14 14 14 14 15 15
10 5 5 4 4 3 5 6 5 2 3 4 8 4 9 8 7 6 6 4 3 4 6 8 9 10 10 11 12 12 12 12 13 13 14 14 14 15 14 15 15 15 15 16
2 6 4 8 5 4 4 8 7 7 3 5 1 6 5 8 5 5 3 2 1 2 6 8 10 10 11 12 12 12 14 14 14 15 15 14 14 14 15 15 15 15 15 15
3 5 4 4 4 2 4 6 7 7 7 9 9 12 7 4 7 5 2 1 3 3 8 10 10 11 12 12 13 14 15 15 14 15 15 15 15 15 15 15 15 15 15 16
3 6 4 5 1 2 6 10 12 5 5 7 9 7 1 4 3 1 3 4 1 6 10 11 12 13 13 13 15 16 15 14 15 15 15 15 15 15 15 15 16 16 16 16
6 6 2 4 4 5 6 3 6 7 5 4 4 6 6 4 3 5 3 5 6 10 13 13 13 13 12 13 15 15 15 15 14 15 15 14 15 15 15 15 16 16 15 15
4 4 5 4 4 2 5 4 5 3 5 3 5 4 4 7 6 7 6 8 11 13 13 13 14 14 16 16 15 15 15 14 14 15 15 15 15 16 16 17 14 14 13 13
8 6 4 4 3 4 5 4 4 1 5 3 3 4 5 7 6 4 10 14 15 14 13 15 16 15 14 15 14 15 15 15 15 14 15 15 16 15 16 14 14 13 13 13
4 3 3 4 1 2 2 1 3 4 6 4 3 4 4 5 6 12 14 13 12 13 15 15 15 15 13 14 14 14 14 14 14 14 15 15 15 14 15 14 12 12 12 13
5 5 3 2 2 2 2 2 3 6 6 5 6 6 6 8 10 12 14 15 16 17 16 15 14 14 14 13 13 13 13 14 14 15 16 16 15 13 11 13 13 12 12 12
5 1 5 3 2 7 8 10 6 4 8 7 5 5 7 8 10 11 13 14 15 15 15 14 14 15 14 12 10 13 14 14 15 15 15 15 15 14 13 13 11 10 10 9
4 3 4 5 5 8 10 11 11 11 11 8 6 6 7 10 11 12 12 13 13 13 14 13 14 14 12 11 12 12 13 14 14 14 15 14 13 14 15 10 8 9 9 8
2 7 7 6 10 12 9 12 10 11 10 8 6 7 9 10 12 13 13 13 13 13 11 11 9 9 12 13 13 12 12 12 12 13 13 13 10 12 13 11 9 10 12 11
2 5 4 2 8 7 9 9 9 10 9 7 6 7 8 11 12 13 12 11 9 10 10 8 9 11 13 13 13 13 12 13 12 11 10 11 10 9 10 10 10 12 14 19
Wind_Direction
186 205 210 225 207 240 247 247 230 225 212 206 218 226 231 219 206 207 235 264 264 266 260 231 245 232 217 218 203 204 190 184 176 177 179 196 205 200 205 208 210 213 218 218
177 224 216 222 237 235 240 260 239 296 192 203 216 229 228 215 221 213 206 239 258 275 280 274 232 213 204 200 214 207 198 180 179 172 166 190 182 205 218 209 204 197 189 186
195 213 208 201 238 238 234 245 252 242 153 221 195 229 233 219 229 215 220 227 239 245 251 241 220 216 207 210 208 211 193 183 173 156 129 112 106 94 141 176 173 186 183 182
219 215 183 208 230 219 243 228 242 249 225 230 223 214 203 178 197 210 201 200 218 218 219 221 214 213 212 215 189 157 136 153 147 150 149 150 161 166 190 189 183 184 196 198
191 179 190 216 228 202 244 224 228 235 229 223 190 238 165 158 209 167 232 57 33 28 8 263 223 225 227 218 158 118 119 134 149 165 168 166 173 189 178 182 188 206 215 220
191 195 188 213 201 198 131 141 124 155 206 231 215 234 193 167 118 128 69 27 26 18 26 34 61 104 126 144 130 127 144 161 171 191 192 207 195 190 189 204 215 216 222 221
179 203 208 190 207 154 189 185 178 193 199 227 172 202 50 51 29 340 20 52 56 53 52 49 50 69 105 112 111 121 83 63 47 26 12 2 346 329 289 281 259 254 231 223
199 210 200 190 220 216 193 219 232 216 191 179 167 210 126 23 52 85 89 77 64 57 55 55 54 57 61 60 62 67 63 53 32 23 13 358 339 301 290 286 283 274 270 274
186 215 166 201 172 200 155 207 83 107 29 205 148 107 22 97 85 88 81 69 60 62 64 69 67 62 60 60 57 61 66 65 57 53 49 41 24 8 339 315 297 283 282 275
189 147 114 112 140 64 233 132 176 155 191 223 163 185 145 163 126 92 69 73 77 73 69 66 66 63 59 56 58 53 49 44 33 22 15 7 346 334 321 312 308 311 306 292
139 193 148 226 36 180 152 160 79 88 352 237 230 164 209 151 130 104 101 96 87 77 74 70 62 52 48 41 36 33 27 17 9 359 343 326 316 312 305 299 299 296 293 286
90 86 144 143 353 282 347 107 175 184 177 92 310 132 67 124 124 127 125 119 106 96 88 71 52 40 30 26 21 20 6 347 336 325 321 317 312 311 305 300 296 294 289 286
132 71 161 181 184 156 153 83 93 94 84 205 223 141 133 133 125 125 126 119 110 89 63 40 28 17 8 6 358 352 342 336 331 326 318 311 307 304 300 297 296 294 292 288
107 125 212 226 79 113 155 144 138 144 193 206 239 165 173 176 152 146 146 129 103 49 22 8 358 355 353 350 344 338 331 326 319 315 309 306 305 304 302 301 297 294 293 290
94 134 152 91 99 80 141 164 164 195 170 238 110 233 223 212 199 161 138 161 210 9 0 354 344 340 336 331 328 323 319 318 318 312 308 305 303 300 298 297 295 296 292 289
25 108 124 108 82 98 230 241 242 238 242 257 269 274 284 92 124 153 168 280 266 336 341 336 332 327 324 323 321 319 313 314 314 309 304 304 301 300 298 297 295 294 293 292
84 133 135 152 134 179 246 238 223 209 208 239 242 280 145 126 132 77 324 316 312 344 333 328 324 322 321 320 319 312 313 312 309 305 302 302 303 299 299 302 298 296 296 297
122 106 78 126 169 211 52 317 206 165 134 167 114 89 79 63 0 325 12 67 356 337 329 326 323 319 317 315 313 313 315 310 306 304 302 304 305 307 302 299 300 299 297 296
59 114 109 161 194 29 129 108 128 198 132 97 117 92 40 358 317 108 85 10 338 329 326 323 322 322 321 318 321 313 310 309 307 306 310 312 309 304 302 298 295 289 288 291
80 79 101 156 186 177 97 103 4 208 180 124 109 68 21 347 306 31 349 337 330 329 327 324 323 317 319 321 317 313 309 313 310 317 308 305 303 299 293 290 287 287 283 282
135 129 138 149 156 122 85 358 318 223 73 104 80 57 19 344 335 320 322 326 323 325 323 321 315 313 318 315 314 310 313 309 307 307 307 304 299 293 290 288 286 284 287 285
148 140 154 124 205 192 8 154 249 95 93 89 67 36 354 332 325 326 325 327 329 327 325 323 318 318 316 319 320 312 302 309 311 307 305 303 300 299 299 294 290 292 287 279
150 197 156 206 88 105 73 81 65 88 107 76 59 25 349 332 329 326 324 326 324 323 323 323 321 316 321 321 310 305 306 313 313 309 307 309 311 311 311 295 291 292 285 279
114 129 93 151 147 120 107 95 90 89 96 88 61 32 4 344 339 334 331 329 328 329 330 327 321 320 313 315 312 309 315 313 313 313 316 320 318 307 302 299 290 286 289 286
48 162 134 114 121 102 93 106 109 101 95 85 69 43 25 1 353 345 338 338 334 331 326 328 318 308 312 322 322 324 320 323 319 316 315 313 308 305 307 302 297 294 294 286
194 139 176 135 151 105 121 120 127 102 87 66 35 17 22 9 358 349 345 337 329 331 326 319 319 330 330 328 327 327 329 329 322 314 314 309 304 309 306 303 296 281 258 271